datetime,flow
1955-10-01,20.0
1955-10-02,20.0
1955-10-03,20.0
1955-10-04,20.0
1955-10-05,20.0
1955-10-06,20.0
1955-10-07,20.0
1955-10-08,20.0
1955-10-09,20.0
1955-10-10,20.0
1955-10-11,20.0
1955-10-12,20.0
1955-10-13,20.0
1955-10-14,20.0
1955-10-15,20.0
1955-10-16,20.0
1955-10-17,25.0
1955-10-18,30.0
1955-10-19,32.0
1955-10-20,33.0
1955-10-21,28.0
1955-10-22,23.0
1955-10-23,20.0
1955-10-24,16.0
1955-10-25,18.0
1955-10-26,17.0
1955-10-27,17.0
1955-10-28,14.0
1955-10-29,16.0
1955-10-30,16.0
1955-10-31,17.0
1955-11-01,16.0
1955-11-02,18.0
1955-11-03,18.0
1955-11-04,16.0
1955-11-05,20.0
1955-11-06,23.0
1955-11-07,20.0
1955-11-08,18.0
1955-11-09,17.0
1955-11-10,18.0
1955-11-11,21.0
1955-11-12,23.0
1955-11-13,26.0
1955-11-14,26.0
1955-11-15,26.0
1955-11-16,21.0
1955-11-17,22.0
1955-11-18,31.0
1955-11-19,34.0
1955-11-20,34.0
1955-11-21,34.0
1955-11-22,41.0
1955-11-23,30.0
1955-11-24,31.0
1955-11-25,31.0
1955-11-26,33.0
1955-11-27,31.0
1955-11-28,30.0
1955-11-29,29.0
1955-11-30,29.0
1955-12-01,34.0
1955-12-02,29.0
1955-12-03,30.0
1955-12-04,27.0
1955-12-05,25.0
1955-12-06,30.0
1955-12-07,35.0
1955-12-08,35.0
1955-12-09,35.0
1955-12-10,35.0
1955-12-11,35.0
1955-12-12,40.0
1955-12-13,45.0
1955-12-14,50.0
1955-12-15,50.0
1955-12-16,50.0
1955-12-17,45.0
1955-12-18,45.0
1955-12-19,45.0
1955-12-20,45.0
1955-12-21,45.0
1955-12-22,50.0
1955-12-23,50.0
1955-12-24,50.0
1955-12-25,50.0
1955-12-26,50.0
1955-12-27,50.0
1955-12-28,50.0
1955-12-29,50.0
1955-12-30,50.0
1955-12-31,50.0
1956-01-01,40.0
1956-01-02,30.0
1956-01-03,33.0
1956-01-04,35.0
1956-01-05,35.0
1956-01-06,35.0
1956-01-07,40.0
1956-01-08,40.0
1956-01-09,45.0
1956-01-10,45.0
1956-01-11,50.0
1956-01-12,50.0
1956-01-13,50.0
1956-01-14,50.0
1956-01-15,50.0
1956-01-16,50.0
1956-01-17,50.0
1956-01-18,45.0
1956-01-19,45.0
1956-01-20,45.0
1956-01-21,45.0
1956-01-22,45.0
1956-01-23,45.0
1956-01-24,40.0
1956-01-25,40.0
1956-01-26,40.0
1956-01-27,40.0
1956-01-28,45.0
1956-01-29,45.0
1956-01-30,45.0
1956-01-31,45.0
1956-02-01,46.0
1956-02-02,46.0
1956-02-03,46.0
1956-02-04,50.0
1956-02-05,50.0
1956-02-06,55.0
1956-02-07,55.0
1956-02-08,50.0
1956-02-09,45.0
1956-02-10,45.0
1956-02-11,48.0
1956-02-12,48.0
1956-02-13,48.0
1956-02-14,48.0
1956-02-15,48.0
1956-02-16,50.0
1956-02-17,50.0
1956-02-18,50.0
1956-02-19,50.0
1956-02-20,50.0
1956-02-21,55.0
1956-02-22,55.0
1956-02-23,55.0
1956-02-24,50.0
1956-02-25,50.0
1956-02-26,55.0
1956-02-27,55.0
1956-02-28,58.0
1956-02-29,60.0
1956-03-01,70.0
1956-03-02,80.0
1956-03-03,85.0
1956-03-04,88.0
1956-03-05,95.0
1956-03-06,88.0
1956-03-07,76.0
1956-03-08,70.0
1956-03-09,82.0
1956-03-10,95.0
1956-03-11,98.0
1956-03-12,85.0
1956-03-13,76.0
1956-03-14,66.0
1956-03-15,66.0
1956-03-16,57.0
1956-03-17,66.0
1956-03-18,88.0
1956-03-19,108.0
1956-03-20,139.0
1956-03-21,127.0
1956-03-22,169.0
1956-03-23,217.0
1956-03-24,285.0
1956-03-25,386.0
1956-03-26,434.0
1956-03-27,484.0
1956-03-28,334.0
1956-03-29,312.0
1956-03-30,398.0
1956-03-31,491.0
1956-04-01,540.0
1956-04-02,446.0
1956-04-03,339.0
1956-04-04,280.0
1956-04-05,265.0
1956-04-06,260.0
1956-04-07,260.0
1956-04-08,334.0
1956-04-09,344.0
1956-04-10,398.0
1956-04-11,452.0
1956-04-12,484.0
1956-04-13,683.0
1956-04-14,728.0
1956-04-15,588.0
1956-04-16,572.0
1956-04-17,692.0
1956-04-18,604.0
1956-04-19,638.0
1956-04-20,683.0
1956-04-21,820.0
1956-04-22,980.0
1956-04-23,1050.0
1956-04-24,1050.0
1956-04-25,1130.0
1956-04-26,1470.0
1956-04-27,1470.0
1956-04-28,1060.0
1956-04-29,900.0
1956-04-30,910.0
1956-05-01,1110.0
1956-05-02,1250.0
1956-05-03,1430.0
1956-05-04,1570.0
1956-05-05,1630.0
1956-05-06,1620.0
1956-05-07,1540.0
1956-05-08,1440.0
1956-05-09,1290.0
1956-05-10,1110.0
1956-05-11,920.0
1956-05-12,880.0
1956-05-13,870.0
1956-05-14,810.0
1956-05-15,701.0
1956-05-16,612.0
1956-05-17,629.0
1956-05-18,665.0
1956-05-19,692.0
1956-05-20,692.0
1956-05-21,737.0
1956-05-22,665.0
1956-05-23,665.0
1956-05-24,638.0
1956-05-25,596.0
1956-05-26,564.0
1956-05-27,533.0
1956-05-28,512.0
1956-05-29,477.0
1956-05-30,446.0
1956-05-31,428.0
1956-06-01,434.0
1956-06-02,470.0
1956-06-03,452.0
1956-06-04,416.0
1956-06-05,398.0
1956-06-06,392.0
1956-06-07,334.0
1956-06-08,285.0
1956-06-09,260.0
1956-06-10,233.0
1956-06-11,213.0
1956-06-12,189.0
1956-06-13,165.0
1956-06-14,143.0
1956-06-15,136.0
1956-06-16,119.0
1956-06-17,108.0
1956-06-18,100.0
1956-06-19,85.0
1956-06-20,76.0
1956-06-21,66.0
1956-06-22,57.0
1956-06-23,48.0
1956-06-24,44.0
1956-06-25,41.0
1956-06-26,33.0
1956-06-27,23.0
1956-06-28,19.0
1956-06-29,18.0
1956-06-30,18.0
1956-07-01,17.0
1956-07-02,16.0
1956-07-03,15.0
1956-07-04,8.3
1956-07-05,6.8
1956-07-06,6.8
1956-07-07,6.5
1956-07-08,6.2
1956-07-09,6.2
1956-07-10,6.5
1956-07-11,6.5
1956-07-12,7.7
1956-07-13,8.3
1956-07-14,6.8
1956-07-15,7.2
1956-07-16,7.7
1956-07-17,7.7
1956-07-18,7.2
1956-07-19,7.7
1956-07-20,8.3
1956-07-21,9.3
1956-07-22,9.8
1956-07-23,8.3
1956-07-24,8.8
1956-07-25,8.8
1956-07-26,7.7
1956-07-27,8.3
1956-07-28,7.7
1956-07-29,10.0
1956-07-30,25.0
1956-07-31,12.0
1956-08-01,29.0
1956-08-02,29.0
1956-08-03,20.0
1956-08-04,14.0
1956-08-05,11.0
1956-08-06,11.0
1956-08-07,9.8
1956-08-08,7.7
1956-08-09,7.2
1956-08-10,6.8
1956-08-11,6.8
1956-08-12,6.8
1956-08-13,6.8
1956-08-14,7.2
1956-08-15,8.8
1956-08-16,14.0
1956-08-17,16.0
1956-08-18,14.0
1956-08-19,14.0
1956-08-20,16.0
1956-08-21,14.0
1956-08-22,12.0
1956-08-23,12.0
1956-08-24,13.0
1956-08-25,15.0
1956-08-26,13.0
1956-08-27,12.0
1956-08-28,11.0
1956-08-29,9.8
1956-08-30,9.3
1956-08-31,9.3
1956-09-01,9.3
1956-09-02,9.8
1956-09-03,9.8
1956-09-04,9.3
1956-09-05,8.3
1956-09-06,8.3
1956-09-07,9.8
1956-09-08,12.0
1956-09-09,13.0
1956-09-10,11.0
1956-09-11,9.8
1956-09-12,11.0
1956-09-13,10.0
1956-09-14,9.8
1956-09-15,8.3
1956-09-16,7.7
1956-09-17,7.7
1956-09-18,6.8
1956-09-19,4.4
1956-09-20,5.1
1956-09-21,5.1
1956-09-22,5.1
1956-09-23,6.2
1956-09-24,6.8
1956-09-25,6.8
1956-09-26,6.5
1956-09-27,5.1
1956-09-28,4.8
1956-09-29,5.4
1956-09-30,5.8
1956-10-01,7.2
1956-10-02,7.2
1956-10-03,6.8
1956-10-04,7.2
1956-10-05,6.8
1956-10-06,6.5
1956-10-07,7.2
1956-10-08,7.2
1956-10-09,7.2
1956-10-10,6.8
1956-10-11,6.2
1956-10-12,6.5
1956-10-13,6.5
1956-10-14,7.2
1956-10-15,7.2
1956-10-16,7.2
1956-10-17,7.7
1956-10-18,8.8
1956-10-19,10.0
1956-10-20,11.0
1956-10-21,11.0
1956-10-22,11.0
1956-10-23,10.0
1956-10-24,13.0
1956-10-25,15.0
1956-10-26,13.0
1956-10-27,13.0
1956-10-28,14.0
1956-10-29,18.0
1956-10-30,20.0
1956-10-31,18.0
1956-11-01,19.0
1956-11-02,20.0
1956-11-03,18.0
1956-11-04,19.0
1956-11-05,20.0
1956-11-06,22.0
1956-11-07,28.0
1956-11-08,29.0
1956-11-09,30.0
1956-11-10,29.0
1956-11-11,31.0
1956-11-12,31.0
1956-11-13,31.0
1956-11-14,31.0
1956-11-15,19.0
1956-11-16,17.0
1956-11-17,18.0
1956-11-18,22.0
1956-11-19,26.0
1956-11-20,22.0
1956-11-21,24.0
1956-11-22,23.0
1956-11-23,24.0
1956-11-24,26.0
1956-11-25,26.0
1956-11-26,27.0
1956-11-27,28.0
1956-11-28,27.0
1956-11-29,28.0
1956-11-30,28.0
1956-12-01,29.0
1956-12-02,30.0
1956-12-03,35.0
1956-12-04,35.0
1956-12-05,35.0
1956-12-06,35.0
1956-12-07,30.0
1956-12-08,30.0
1956-12-09,25.0
1956-12-10,25.0
1956-12-11,30.0
1956-12-12,35.0
1956-12-13,40.0
1956-12-14,40.0
1956-12-15,35.0
1956-12-16,35.0
1956-12-17,35.0
1956-12-18,35.0
1956-12-19,35.0
1956-12-20,30.0
1956-12-21,30.0
1956-12-22,30.0
1956-12-23,30.0
1956-12-24,30.0
1956-12-25,25.0
1956-12-26,25.0
1956-12-27,25.0
1956-12-28,25.0
1956-12-29,25.0
1956-12-30,25.0
1956-12-31,25.0
1957-01-01,25.0
1957-01-02,25.0
1957-01-03,25.0
1957-01-04,25.0
1957-01-05,25.0
1957-01-06,25.0
1957-01-07,27.0
1957-01-08,30.0
1957-01-09,35.0
1957-01-10,35.0
1957-01-11,30.0
1957-01-12,35.0
1957-01-13,40.0
1957-01-14,45.0
1957-01-15,45.0
1957-01-16,40.0
1957-01-17,35.0
1957-01-18,32.0
1957-01-19,30.0
1957-01-20,30.0
1957-01-21,32.0
1957-01-22,35.0
1957-01-23,30.0
1957-01-24,30.0
1957-01-25,30.0
1957-01-26,35.0
1957-01-27,35.0
1957-01-28,30.0
1957-01-29,30.0
1957-01-30,30.0
1957-01-31,30.0
1957-02-01,35.0
1957-02-02,35.0
1957-02-03,35.0
1957-02-04,35.0
1957-02-05,30.0
1957-02-06,30.0
1957-02-07,30.0
1957-02-08,35.0
1957-02-09,40.0
1957-02-10,45.0
1957-02-11,45.0
1957-02-12,45.0
1957-02-13,45.0
1957-02-14,50.0
1957-02-15,70.0
1957-02-16,100.0
1957-02-17,113.0
1957-02-18,105.0
1957-02-19,92.0
1957-02-20,88.0
1957-02-21,82.0
1957-02-22,82.0
1957-02-23,78.0
1957-02-24,95.0
1957-02-25,88.0
1957-02-26,88.0
1957-02-27,90.0
1957-02-28,88.0
1957-03-01,88.0
1957-03-02,85.0
1957-03-03,80.0
1957-03-04,72.0
1957-03-05,60.0
1957-03-06,74.0
1957-03-07,55.0
1957-03-08,60.0
1957-03-09,72.0
1957-03-10,95.0
1957-03-11,90.0
1957-03-12,78.0
1957-03-13,88.0
1957-03-14,64.0
1957-03-15,50.0
1957-03-16,60.0
1957-03-17,70.0
1957-03-18,70.0
1957-03-19,60.0
1957-03-20,70.0
1957-03-21,90.0
1957-03-22,100.0
1957-03-23,90.0
1957-03-24,70.0
1957-03-25,70.0
1957-03-26,90.0
1957-03-27,110.0
1957-03-28,130.0
1957-03-29,150.0
1957-03-30,164.0
1957-03-31,167.0
1957-04-01,181.0
1957-04-02,167.0
1957-04-03,158.0
1957-04-04,142.0
1957-04-05,124.0
1957-04-06,161.0
1957-04-07,167.0
1957-04-08,138.0
1957-04-09,155.0
1957-04-10,223.0
1957-04-11,305.0
1957-04-12,428.0
1957-04-13,508.0
1957-04-14,622.0
1957-04-15,675.0
1957-04-16,820.0
1957-04-17,890.0
1957-04-18,942.0
1957-04-19,693.0
1957-04-20,675.0
1957-04-21,880.0
1957-04-22,1100.0
1957-04-23,750.0
1957-04-24,598.0
1957-04-25,598.0
1957-04-26,494.0
1957-04-27,480.0
1957-04-28,422.0
1957-04-29,428.0
1957-04-30,543.0
1957-05-01,780.0
1957-05-02,1020.0
1957-05-03,1380.0
1957-05-04,1670.0
1957-05-05,1940.0
1957-05-06,2070.0
1957-05-07,2180.0
1957-05-08,2300.0
1957-05-09,2200.0
1957-05-10,2160.0
1957-05-11,2270.0
1957-05-12,1710.0
1957-05-13,1470.0
1957-05-14,1260.0
1957-05-15,1180.0
1957-05-16,1070.0
1957-05-17,1010.0
1957-05-18,1210.0
1957-05-19,1580.0
1957-05-20,1730.0
1957-05-21,1420.0
1957-05-22,1190.0
1957-05-23,1080.0
1957-05-24,1040.0
1957-05-25,1050.0
1957-05-26,1420.0
1957-05-27,1520.0
1957-05-28,1820.0
1957-05-29,2300.0
1957-05-30,2470.0
1957-05-31,2650.0
1957-06-01,3540.0
1957-06-02,4800.0
1957-06-03,4840.0
1957-06-04,5650.0
1957-06-05,5390.0
1957-06-06,5360.0
1957-06-07,5760.0
1957-06-08,5160.0
1957-06-09,4530.0
1957-06-10,4000.0
1957-06-11,3600.0
1957-06-12,3190.0
1957-06-13,3220.0
1957-06-14,3310.0
1957-06-15,2900.0
1957-06-16,2520.0
1957-06-17,2200.0
1957-06-18,2130.0
1957-06-19,2220.0
1957-06-20,2300.0
1957-06-21,2200.0
1957-06-22,1900.0
1957-06-23,1780.0
1957-06-24,1690.0
1957-06-25,1600.0
1957-06-26,1520.0
1957-06-27,1420.0
1957-06-28,1360.0
1957-06-29,1350.0
1957-06-30,1290.0
1957-07-01,1160.0
1957-07-02,1040.0
1957-07-03,953.0
1957-07-04,900.0
1957-07-05,820.0
1957-07-06,760.0
1957-07-07,693.0
1957-07-08,675.0
1957-07-09,711.0
1957-07-10,566.0
1957-07-11,494.0
1957-07-12,467.0
1957-07-13,460.0
1957-07-14,474.0
1957-07-15,428.0
1957-07-16,409.0
1957-07-17,434.0
1957-07-18,460.0
1957-07-19,385.0
1957-07-20,367.0
1957-07-21,340.0
1957-07-22,291.0
1957-07-23,282.0
1957-07-24,345.0
1957-07-25,403.0
1957-07-26,566.0
1957-07-27,790.0
1957-07-28,448.0
1957-07-29,480.0
1957-07-30,525.0
1957-07-31,574.0
1957-08-01,515.0
1957-08-02,460.0
1957-08-03,448.0
1957-08-04,385.0
1957-08-05,622.0
1957-08-06,590.0
1957-08-07,666.0
1957-08-08,434.0
1957-08-09,361.0
1957-08-10,379.0
1957-08-11,340.0
1957-08-12,350.0
1957-08-13,320.0
1957-08-14,325.0
1957-08-15,296.0
1957-08-16,397.0
1957-08-17,340.0
1957-08-18,296.0
1957-08-19,247.0
1957-08-20,216.0
1957-08-21,216.0
1957-08-22,227.0
1957-08-23,208.0
1957-08-24,194.0
1957-08-25,277.0
1957-08-26,325.0
1957-08-27,202.0
1957-08-28,175.0
1957-08-29,181.0
1957-08-30,345.0
1957-08-31,574.0
1957-09-01,355.0
1957-09-02,273.0
1957-09-03,227.0
1957-09-04,198.0
1957-09-05,175.0
1957-09-06,167.0
1957-09-07,155.0
1957-09-08,150.0
1957-09-09,135.0
1957-09-10,124.0
1957-09-11,115.0
1957-09-12,109.0
1957-09-13,105.0
1957-09-14,100.0
1957-09-15,96.0
1957-09-16,93.0
1957-09-17,91.0
1957-09-18,88.0
1957-09-19,81.0
1957-09-20,78.0
1957-09-21,77.0
1957-09-22,77.0
1957-09-23,75.0
1957-09-24,72.0
1957-09-25,70.0
1957-09-26,67.0
1957-09-27,63.0
1957-09-28,63.0
1957-09-29,62.0
1957-09-30,61.0
1957-10-01,60.0
1957-10-02,60.0
1957-10-03,59.0
1957-10-04,55.0
1957-10-05,55.0
1957-10-06,56.0
1957-10-07,58.0
1957-10-08,58.0
1957-10-09,56.0
1957-10-10,56.0
1957-10-11,56.0
1957-10-12,70.0
1957-10-13,105.0
1957-10-14,117.0
1957-10-15,109.0
1957-10-16,102.0
1957-10-17,95.0
1957-10-18,96.0
1957-10-19,104.0
1957-10-20,124.0
1957-10-21,148.0
1957-10-22,164.0
1957-10-23,124.0
1957-10-24,120.0
1957-10-25,120.0
1957-10-26,107.0
1957-10-27,104.0
1957-10-28,102.0
1957-10-29,111.0
1957-10-30,120.0
1957-10-31,120.0
1957-11-01,140.0
1957-11-02,150.0
1957-11-03,140.0
1957-11-04,132.0
1957-11-05,148.0
1957-11-06,170.0
1957-11-07,140.0
1957-11-08,164.0
1957-11-09,138.0
1957-11-10,138.0
1957-11-11,138.0
1957-11-12,142.0
1957-11-13,142.0
1957-11-14,135.0
1957-11-15,138.0
1957-11-16,138.0
1957-11-17,135.0
1957-11-18,132.0
1957-11-19,120.0
1957-11-20,110.0
1957-11-21,100.0
1957-11-22,95.0
1957-11-23,100.0
1957-11-24,110.0
1957-11-25,120.0
1957-11-26,130.0
1957-11-27,130.0
1957-11-28,115.0
1957-11-29,105.0
1957-11-30,105.0
1957-12-01,105.0
1957-12-02,105.0
1957-12-03,105.0
1957-12-04,105.0
1957-12-05,110.0
1957-12-06,110.0
1957-12-07,105.0
1957-12-08,105.0
1957-12-09,105.0
1957-12-10,105.0
1957-12-11,105.0
1957-12-12,100.0
1957-12-13,97.0
1957-12-14,97.0
1957-12-15,100.0
1957-12-16,104.0
1957-12-17,104.0
1957-12-18,95.0
1957-12-19,90.0
1957-12-20,82.0
1957-12-21,83.0
1957-12-22,86.0
1957-12-23,90.0
1957-12-24,92.0
1957-12-25,94.0
1957-12-26,82.0
1957-12-27,82.0
1957-12-28,82.0
1957-12-29,82.0
1957-12-30,80.0
1957-12-31,70.0
1958-01-01,70.0
1958-01-02,70.0
1958-01-03,70.0
1958-01-04,70.0
1958-01-05,70.0
1958-01-06,75.0
1958-01-07,75.0
1958-01-08,75.0
1958-01-09,75.0
1958-01-10,75.0
1958-01-11,70.0
1958-01-12,70.0
1958-01-13,70.0
1958-01-14,70.0
1958-01-15,70.0
1958-01-16,80.0
1958-01-17,80.0
1958-01-18,80.0
1958-01-19,70.0
1958-01-20,70.0
1958-01-21,70.0
1958-01-22,60.0
1958-01-23,60.0
1958-01-24,60.0
1958-01-25,70.0
1958-01-26,70.0
1958-01-27,70.0
1958-01-28,70.0
1958-01-29,70.0
1958-01-30,70.0
1958-01-31,70.0
1958-02-01,70.0
1958-02-02,80.0
1958-02-03,80.0
1958-02-04,80.0
1958-02-05,80.0
1958-02-06,70.0
1958-02-07,70.0
1958-02-08,70.0
1958-02-09,80.0
1958-02-10,80.0
1958-02-11,70.0
1958-02-12,70.0
1958-02-13,70.0
1958-02-14,70.0
1958-02-15,70.0
1958-02-16,75.0
1958-02-17,90.0
1958-02-18,100.0
1958-02-19,120.0
1958-02-20,150.0
1958-02-21,200.0
1958-02-22,400.0
1958-02-23,448.0
1958-02-24,345.0
1958-02-25,282.0
1958-02-26,184.0
1958-02-27,170.0
1958-02-28,140.0
1958-03-01,140.0
1958-03-02,150.0
1958-03-03,140.0
1958-03-04,132.0
1958-03-05,126.0
1958-03-06,122.0
1958-03-07,115.0
1958-03-08,113.0
1958-03-09,109.0
1958-03-10,100.0
1958-03-11,96.0
1958-03-12,107.0
1958-03-13,105.0
1958-03-14,102.0
1958-03-15,102.0
1958-03-16,109.0
1958-03-17,115.0
1958-03-18,138.0
1958-03-19,142.0
1958-03-20,148.0
1958-03-21,205.0
1958-03-22,239.0
1958-03-23,259.0
1958-03-24,259.0
1958-03-25,239.0
1958-03-26,239.0
1958-03-27,247.0
1958-03-28,247.0
1958-03-29,198.0
1958-03-30,205.0
1958-03-31,268.0
1958-04-01,273.0
1958-04-02,255.0
1958-04-03,219.0
1958-04-04,227.0
1958-04-05,184.0
1958-04-06,212.0
1958-04-07,310.0
1958-04-08,350.0
1958-04-09,291.0
1958-04-10,310.0
1958-04-11,335.0
1958-04-12,264.0
1958-04-13,231.0
1958-04-14,305.0
1958-04-15,522.0
1958-04-16,780.0
1958-04-17,953.0
1958-04-18,1320.0
1958-04-19,1920.0
1958-04-20,2130.0
1958-04-21,2370.0
1958-04-22,2470.0
1958-04-23,2390.0
1958-04-24,1940.0
1958-04-25,1960.0
1958-04-26,2000.0
1958-04-27,2220.0
1958-04-28,2110.0
1958-04-29,1670.0
1958-04-30,1570.0
1958-05-01,1600.0
1958-05-02,1690.0
1958-05-03,1780.0
1958-05-04,2180.0
1958-05-05,2730.0
1958-05-06,3040.0
1958-05-07,3040.0
1958-05-08,3250.0
1958-05-09,3470.0
1958-05-10,3470.0
1958-05-11,3470.0
1958-05-12,4490.0
1958-05-13,3800.0
1958-05-14,3540.0
1958-05-15,3570.0
1958-05-16,3870.0
1958-05-17,4120.0
1958-05-18,3950.0
1958-05-19,3760.0
1958-05-20,3490.0
1958-05-21,3200.0
1958-05-22,3020.0
1958-05-23,3120.0
1958-05-24,2910.0
1958-05-25,2840.0
1958-05-26,2810.0
1958-05-27,2670.0
1958-05-28,2510.0
1958-05-29,2380.0
1958-05-30,2200.0
1958-05-31,2050.0
1958-06-01,1880.0
1958-06-02,1740.0
1958-06-03,1610.0
1958-06-04,1470.0
1958-06-05,1400.0
1958-06-06,1360.0
1958-06-07,1140.0
1958-06-08,1130.0
1958-06-09,984.0
1958-06-10,850.0
1958-06-11,750.0
1958-06-12,669.0
1958-06-13,588.0
1958-06-14,524.0
1958-06-15,470.0
1958-06-16,430.0
1958-06-17,390.0
1958-06-18,350.0
1958-06-19,320.0
1958-06-20,285.0
1958-06-21,262.0
1958-06-22,242.0
1958-06-23,220.0
1958-06-24,200.0
1958-06-25,180.0
1958-06-26,165.0
1958-06-27,150.0
1958-06-28,140.0
1958-06-29,125.0
1958-06-30,116.0
1958-07-01,103.0
1958-07-02,99.0
1958-07-03,106.0
1958-07-04,95.0
1958-07-05,84.0
1958-07-06,76.0
1958-07-07,72.0
1958-07-08,71.0
1958-07-09,62.0
1958-07-10,54.0
1958-07-11,49.0
1958-07-12,47.0
1958-07-13,43.0
1958-07-14,42.0
1958-07-15,39.0
1958-07-16,34.0
1958-07-17,25.0
1958-07-18,27.0
1958-07-19,56.0
1958-07-20,43.0
1958-07-21,35.0
1958-07-22,32.0
1958-07-23,28.0
1958-07-24,27.0
1958-07-25,29.0
1958-07-26,32.0
1958-07-27,32.0
1958-07-28,31.0
1958-07-29,31.0
1958-07-30,32.0
1958-07-31,32.0
1958-08-01,32.0
1958-08-02,30.0
1958-08-03,28.0
1958-08-04,29.0
1958-08-05,28.0
1958-08-06,31.0
1958-08-07,37.0
1958-08-08,35.0
1958-08-09,35.0
1958-08-10,34.0
1958-08-11,34.0
1958-08-12,35.0
1958-08-13,35.0
1958-08-14,34.0
1958-08-15,33.0
1958-08-16,49.0
1958-08-17,66.0
1958-08-18,65.0
1958-08-19,52.0
1958-08-20,48.0
1958-08-21,52.0
1958-08-22,116.0
1958-08-23,116.0
1958-08-24,86.0
1958-08-25,90.0
1958-08-26,84.0
1958-08-27,70.0
1958-08-28,57.0
1958-08-29,50.0
1958-08-30,47.0
1958-08-31,43.0
1958-09-01,39.0
1958-09-02,39.0
1958-09-03,37.0
1958-09-04,39.0
1958-09-05,42.0
1958-09-06,43.0
1958-09-07,62.0
1958-09-08,57.0
1958-09-09,49.0
1958-09-10,42.0
1958-09-11,36.0
1958-09-12,37.0
1958-09-13,265.0
1958-09-14,254.0
1958-09-15,138.0
1958-09-16,99.0
1958-09-17,82.0
1958-09-18,74.0
1958-09-19,70.0
1958-09-20,64.0
1958-09-21,61.0
1958-09-22,57.0
1958-09-23,58.0
1958-09-24,59.0
1958-09-25,68.0
1958-09-26,64.0
1958-09-27,59.0
1958-09-28,61.0
1958-09-29,61.0
1958-09-30,57.0
1958-10-01,54.0
1958-10-02,56.0
1958-10-03,59.0
1958-10-04,58.0
1958-10-05,56.0
1958-10-06,56.0
1958-10-07,65.0
1958-10-08,58.0
1958-10-09,53.0
1958-10-10,52.0
1958-10-11,50.0
1958-10-12,49.0
1958-10-13,49.0
1958-10-14,47.0
1958-10-15,42.0
1958-10-16,41.0
1958-10-17,42.0
1958-10-18,43.0
1958-10-19,43.0
1958-10-20,42.0
1958-10-21,42.0
1958-10-22,39.0
1958-10-23,39.0
1958-10-24,39.0
1958-10-25,48.0
1958-10-26,71.0
1958-10-27,68.0
1958-10-28,61.0
1958-10-29,65.0
1958-10-30,65.0
1958-10-31,57.0
1958-11-01,56.0
1958-11-02,53.0
1958-11-03,52.0
1958-11-04,52.0
1958-11-05,52.0
1958-11-06,52.0
1958-11-07,52.0
1958-11-08,52.0
1958-11-09,52.0
1958-11-10,52.0
1958-11-11,53.0
1958-11-12,53.0
1958-11-13,56.0
1958-11-14,54.0
1958-11-15,50.0
1958-11-16,44.0
1958-11-17,39.0
1958-11-18,35.0
1958-11-19,40.0
1958-11-20,45.0
1958-11-21,52.0
1958-11-22,52.0
1958-11-23,52.0
1958-11-24,52.0
1958-11-25,52.0
1958-11-26,47.0
1958-11-27,42.0
1958-11-28,37.0
1958-11-29,40.0
1958-11-30,42.0
1958-12-01,46.0
1958-12-02,50.0
1958-12-03,50.0
1958-12-04,50.0
1958-12-05,50.0
1958-12-06,50.0
1958-12-07,48.0
1958-12-08,47.0
1958-12-09,46.0
1958-12-10,45.0
1958-12-11,43.0
1958-12-12,42.0
1958-12-13,41.0
1958-12-14,40.0
1958-12-15,40.0
1958-12-16,40.0
1958-12-17,40.0
1958-12-18,40.0
1958-12-19,39.0
1958-12-20,38.0
1958-12-21,38.0
1958-12-22,37.0
1958-12-23,36.0
1958-12-24,35.0
1958-12-25,35.0
1958-12-26,35.0
1958-12-27,36.0
1958-12-28,38.0
1958-12-29,40.0
1958-12-30,35.0
1958-12-31,30.0
1959-01-01,32.0
1959-01-02,34.0
1959-01-03,29.0
1959-01-04,26.0
1959-01-05,33.0
1959-01-06,40.0
1959-01-07,45.0
1959-01-08,45.0
1959-01-09,45.0
1959-01-10,45.0
1959-01-11,45.0
1959-01-12,45.0
1959-01-13,45.0
1959-01-14,45.0
1959-01-15,40.0
1959-01-16,45.0
1959-01-17,50.0
1959-01-18,50.0
1959-01-19,50.0
1959-01-20,50.0
1959-01-21,45.0
1959-01-22,45.0
1959-01-23,50.0
1959-01-24,56.0
1959-01-25,60.0
1959-01-26,66.0
1959-01-27,66.0
1959-01-28,66.0
1959-01-29,66.0
1959-01-30,66.0
1959-01-31,66.0
1959-02-01,56.0
1959-02-02,50.0
1959-02-03,45.0
1959-02-04,45.0
1959-02-05,47.0
1959-02-06,50.0
1959-02-07,50.0
1959-02-08,50.0
1959-02-09,45.0
1959-02-10,40.0
1959-02-11,45.0
1959-02-12,45.0
1959-02-13,45.0
1959-02-14,40.0
1959-02-15,50.0
1959-02-16,60.0
1959-02-17,60.0
1959-02-18,60.0
1959-02-19,60.0
1959-02-20,60.0
1959-02-21,58.0
1959-02-22,54.0
1959-02-23,52.0
1959-02-24,50.0
1959-02-25,61.0
1959-02-26,56.0
1959-02-27,50.0
1959-02-28,49.0
1959-03-01,54.0
1959-03-02,59.0
1959-03-03,65.0
1959-03-04,65.0
1959-03-05,52.0
1959-03-06,48.0
1959-03-07,50.0
1959-03-08,56.0
1959-03-09,54.0
1959-03-10,59.0
1959-03-11,52.0
1959-03-12,50.0
1959-03-13,57.0
1959-03-14,74.0
1959-03-15,56.0
1959-03-16,56.0
1959-03-17,62.0
1959-03-18,79.0
1959-03-19,88.0
1959-03-20,61.0
1959-03-21,54.0
1959-03-22,61.0
1959-03-23,71.0
1959-03-24,76.0
1959-03-25,77.0
1959-03-26,70.0
1959-03-27,65.0
1959-03-28,70.0
1959-03-29,68.0
1959-03-30,62.0
1959-03-31,72.0
1959-04-01,70.0
1959-04-02,95.0
1959-04-03,138.0
1959-04-04,169.0
1959-04-05,203.0
1959-04-06,238.0
1959-04-07,447.0
1959-04-08,386.0
1959-04-09,270.0
1959-04-10,177.0
1959-04-11,187.0
1959-04-12,184.0
1959-04-13,199.0
1959-04-14,227.0
1959-04-15,250.0
1959-04-16,234.0
1959-04-17,238.0
1959-04-18,275.0
1959-04-19,234.0
1959-04-20,206.0
1959-04-21,184.0
1959-04-22,181.0
1959-04-23,213.0
1959-04-24,250.0
1959-04-25,482.0
1959-04-26,696.0
1959-04-27,723.0
1959-04-28,588.0
1959-04-29,612.0
1959-04-30,788.0
1959-05-01,1160.0
1959-05-02,1300.0
1959-05-03,1520.0
1959-05-04,1180.0
1959-05-05,972.0
1959-05-06,840.0
1959-05-07,991.0
1959-05-08,1090.0
1959-05-09,820.0
1959-05-10,1030.0
1959-05-11,1440.0
1959-05-12,1520.0
1959-05-13,1550.0
1959-05-14,1740.0
1959-05-15,1670.0
1959-05-16,1420.0
1959-05-17,1210.0
1959-05-18,1120.0
1959-05-19,960.0
1959-05-20,800.0
1959-05-21,687.0
1959-05-22,612.0
1959-05-23,566.0
1959-05-24,588.0
1959-05-25,573.0
1959-05-26,489.0
1959-05-27,454.0
1959-05-28,380.0
1959-05-29,380.0
1959-05-30,356.0
1959-05-31,326.0
1959-06-01,338.0
1959-06-02,320.0
1959-06-03,305.0
1959-06-04,270.0
1959-06-05,262.0
1959-06-06,246.0
1959-06-07,225.0
1959-06-08,210.0
1959-06-09,195.0
1959-06-10,180.0
1959-06-11,165.0
1959-06-12,155.0
1959-06-13,145.0
1959-06-14,133.0
1959-06-15,123.0
1959-06-16,113.0
1959-06-17,106.0
1959-06-18,88.0
1959-06-19,81.0
1959-06-20,82.0
1959-06-21,76.0
1959-06-22,74.0
1959-06-23,81.0
1959-06-24,72.0
1959-06-25,65.0
1959-06-26,57.0
1959-06-27,52.0
1959-06-28,47.0
1959-06-29,41.0
1959-06-30,35.0
1959-07-01,31.0
1959-07-02,25.0
1959-07-03,22.0
1959-07-04,19.0
1959-07-05,16.0
1959-07-06,16.0
1959-07-07,16.0
1959-07-08,18.0
1959-07-09,18.0
1959-07-10,16.0
1959-07-11,15.0
1959-07-12,14.0
1959-07-13,13.0
1959-07-14,12.0
1959-07-15,11.0
1959-07-16,12.0
1959-07-17,12.0
1959-07-18,13.0
1959-07-19,13.0
1959-07-20,20.0
1959-07-21,21.0
1959-07-22,18.0
1959-07-23,17.0
1959-07-24,12.0
1959-07-25,12.0
1959-07-26,12.0
1959-07-27,12.0
1959-07-28,15.0
1959-07-29,17.0
1959-07-30,20.0
1959-07-31,18.0
1959-08-01,18.0
1959-08-02,19.0
1959-08-03,18.0
1959-08-04,24.0
1959-08-05,29.0
1959-08-06,49.0
1959-08-07,71.0
1959-08-08,135.0
1959-08-09,143.0
1959-08-10,143.0
1959-08-11,88.0
1959-08-12,76.0
1959-08-13,61.0
1959-08-14,61.0
1959-08-15,58.0
1959-08-16,52.0
1959-08-17,47.0
1959-08-18,43.0
1959-08-19,43.0
1959-08-20,54.0
1959-08-21,47.0
1959-08-22,39.0
1959-08-23,37.0
1959-08-24,53.0
1959-08-25,172.0
1959-08-26,108.0
1959-08-27,71.0
1959-08-28,57.0
1959-08-29,45.0
1959-08-30,34.0
1959-08-31,30.0
1959-09-01,26.0
1959-09-02,24.0
1959-09-03,22.0
1959-09-04,21.0
1959-09-05,19.0
1959-09-06,19.0
1959-09-07,18.0
1959-09-08,19.0
1959-09-09,18.0
1959-09-10,19.0
1959-09-11,19.0
1959-09-12,18.0
1959-09-13,17.0
1959-09-14,15.0
1959-09-15,15.0
1959-09-16,16.0
1959-09-17,21.0
1959-09-18,32.0
1959-09-19,30.0
1959-09-20,27.0
1959-09-21,22.0
1959-09-22,22.0
1959-09-23,20.0
1959-09-24,20.0
1959-09-25,22.0
1959-09-26,26.0
1959-09-27,26.0
1959-09-28,28.0
1959-09-29,32.0